[[{"header":{"parameterUnit":"m.s-1","parameterCategory":1,"la1":30.2991,"la2":30.254,"lo1":-89.0895,"lo2":-89.0444,"dy":0.0017,"dx":0.0017,"nx":28,"ny":28,"refTime":"2025-08-25T09:00:00:Z","depth":0,"parameterNumber":2,"parameterNumberName":"U-component_of_WINDS"},"data":[0,0,0,0,0,0,0,0,0,0,0,0,0,0,0,0,0,0,0,0,0,0,0,0,0,0,0,0,0,0,0,0,0,0,0,0,0,0,0,0,0,0,0,0,0,0,0,0,0,0,0,0,0,0,0,0,0,0,-1.5143,-1.5143,0,-1.5189,-1.5189,-1.519,-1.517,-1.5168,-1.5167,-1.5166,-1.5213,-1.5216,-1.5218,0,0,0,0,0,0,0,0,0,0,0,0,0,-1.5037,-1.5039,-1.5143,-1.5143,-1.5144,-1.5189,-1.5189,-1.519,-1.517,-1.5168,-1.5167,-1.5166,-1.5213,-1.5215,-1.5218,0,0,0,0,0,0,0,0,0,0,0,0,0,-1.5083,-1.5039,-1.5143,-1.5139,-1.5139,-1.5189,-1.5189,-1.519,-1.517,-1.5168,-1.5167,-1.5165,-1.5212,-1.5215,-1.5219,-1.5274,0,0,-1.5229,-1.5231,0,0,0,0,0,0,0,0,-1.508,-1.5087,-1.5139,-1.514,-1.514,-1.5172,-1.5169,-1.5218,-1.517,-1.5158,-1.5166,-1.5164,-1.5201,-1.5205,-1.5218,-1.5276,-1.5278,-1.5229,-1.5232,-1.5233,-1.5234,0,0,0,0,0,0,0,-1.5077,-1.5085,-1.5161,-1.514,-1.514,-1.5135,-1.514,-1.5178,-1.5189,-1.5159,-1.5158,-1.5164,-1.5201,-1.5214,-1.5218,-1.5279,-1.5229,-1.5232,-1.5235,-1.5236,-1.5383,-1.5385,0,0,0,0,0,0,-1.5074,-1.5082,-1.516,-1.5162,-1.5105,-1.5138,-1.5144,-1.5163,-1.5188,-1.519,-1.5165,-1.5163,-1.5209,-1.5214,-1.522,-1.5285,-1.5233,-1.5236,-1.5238,-1.5381,-1.5383,-1.5385,0,0,0,0,0,0,-1.5072,-1.5081,-1.5158,-1.5122,-1.5131,-1.5142,-1.5164,-1.5165,-1.5178,-1.5192,-1.5194,-1.5177,-1.5208,-1.5215,-1.526,-1.5286,-1.5238,-1.5241,-1.5379,-1.5382,-1.5384,-1.5416,0,0,0,0,0,0,-1.5069,-1.508,-1.5102,-1.5122,-1.5133,-1.5198,-1.5166,-1.5167,-1.5184,-1.5182,-1.5204,-1.5206,-1.5207,-1.5255,-1.5264,-1.529,-1.5244,-1.5377,-1.538,-1.5384,-1.5413,-1.542,-1.5426,0,0,0,0,0,-1.5065,-1.5109,-1.5103,-1.5112,-1.516,-1.5199,-1.5205,-1.5205,-1.5187,-1.5208,-1.5217,-1.5206,-1.5282,-1.526,-1.5269,-1.5298,-1.5375,-1.5379,-1.5383,-1.541,-1.5419,-1.5426,0,0,0,0,0,0,-1.5092,-1.5112,-1.5105,-1.5158,-1.5177,-1.5196,-1.5223,-1.5215,-1.5239,-1.5236,-1.5235,-1.524,-1.5286,-1.5297,-1.5271,-1.5351,-1.5326,-1.5332,-1.5343,-1.5351,-1.5357,-1.5354,-1.5247,0,0,0,0,0,-1.5104,-1.5134,-1.515,-1.5195,-1.5205,-1.5212,-1.5229,-1.5227,-1.5247,-1.5255,-1.5267,-1.5287,-1.5315,-1.5334,-1.5361,-1.5415,-1.5418,-1.5438,-1.5445,-1.545,-1.5455,-1.5483,-1.5491,-1.5399,-1.5399,-1.5399,0,0,-1.513,-1.5144,-1.5163,-1.5201,-1.5215,-1.5246,-1.5219,-1.5253,-1.5275,-1.526,-1.5303,-1.5313,-1.5334,-1.5383,-1.5406,-1.5393,-1.5481,-1.5455,-1.5459,-1.5462,-1.5488,-1.5496,-1.5504,-1.5402,-1.5401,-1.5401,0,0,-1.5191,-1.5206,-1.5244,-1.5258,-1.5281,-1.5285,-1.5294,-1.5314,-1.5319,-1.5362,-1.5351,-1.5378,-1.5427,-1.5442,-1.5456,-1.5522,-1.5512,-1.5531,-1.5564,-1.559,-1.5598,-1.5604,-1.5626,-1.5634,-1.5536,-1.5536,-1.5536,0,-1.522,-1.5265,-1.5264,-1.5299,-1.5315,-1.5302,-1.534,-1.5354,-1.5384,-1.5396,-1.5381,-1.5441,-1.5455,-1.5507,-1.5523,-1.5535,-1.5545,-1.5528,-1.5597,-1.5603,-1.5609,-1.563,-1.5639,-1.5538,-1.5538,-1.5538,-1.5537,0,-1.5299,-1.533,-1.5358,-1.5387,-1.5406,-1.5442,-1.5446,-1.5466,-1.5462,-1.5468,-1.5511,-1.5527,-1.5556,-1.5568,-1.5565,-1.5619,-1.561,-1.5597,-1.5571,-1.562,-1.564,-1.5648,-1.5541,-1.554,-1.554,-1.5539,0,0,-1.5379,-1.5405,-1.5416,-1.5427,-1.545,-1.5475,-1.5509,-1.5538,-1.5554,-1.5575,-1.5603,-1.5644,-1.5631,-1.5647,-1.5646,-1.5669,-1.5718,-1.5652,-1.5653,-1.5663,-1.5777,-1.5786,-1.5795,-1.5712,-1.5714,-1.5715,-1.5774,0,-1.5441,-1.5502,-1.5501,-1.5558,-1.5586,-1.5574,-1.5604,-1.5621,-1.5627,-1.5651,-1.5658,-1.5686,-1.5668,-1.5677,-1.57,-1.5708,-1.5741,-1.5703,-1.5738,-1.5739,-1.5732,-1.5806,-1.5816,-1.5872,-1.5782,-1.5783,-1.5784,0,-1.5522,-1.5544,-1.5603,-1.562,-1.5632,-1.5659,-1.5684,-1.5708,-1.5726,-1.5729,-1.5746,-1.5741,-1.5775,-1.5748,-1.5795,-1.577,-1.5784,-1.5789,-1.5791,-1.5794,-1.5764,-1.5809,-1.589,-1.5898,-1.5797,-1.5796,-1.5795,0,-1.5572,-1.5618,-1.5658,-1.5669,-1.569,-1.5709,-1.5719,-1.5736,-1.5752,-1.5774,-1.5784,-1.581,-1.5824,-1.5843,-1.5844,-1.5825,-1.5891,-1.5865,-1.5893,-1.5893,-1.5907,-1.5906,-1.599,-1.5918,-1.5918,-1.5918,-1.5918,0,-1.5641,-1.5677,-1.5681,-1.5706,-1.5745,-1.5744,-1.5783,-1.5791,-1.5806,-1.5832,-1.5823,-1.5847,-1.5848,-1.5872,-1.5874,-1.5911,-1.5918,-1.592,-1.592,-1.592,-1.592,-1.5929,-1.5925,-1.592,-1.592,-1.5919,-1.5919,0,-1.5705,-1.5709,-1.5752,-1.5768,-1.5773,-1.5801,-1.5815,-1.5838,-1.5843,-1.5875,-1.5883,-1.589,-1.5918,-1.5921,-1.5955,-1.5955,-1.6,-1.5996,-1.5994,-1.5993,-1.602,-1.6017,-1.6112,-1.6124,-1.6045,-1.6046,-1.6047,0,-1.5748,-1.5775,-1.5794,-1.581,-1.5821,-1.5847,-1.5864,-1.5863,-1.588,-1.5903,-1.5923,-1.595,-1.5972,-1.6017,-1.6025,-1.605,-1.6046,-1.6077,-1.605,-1.6049,-1.6045,-1.6043,-1.6045,-1.6083,-1.6083,-1.6084,-1.6085,0,-1.5823,-1.5823,-1.5847,-1.5871,-1.5891,-1.591,-1.5928,-1.5942,-1.5944,-1.5963,-1.5992,-1.6009,-1.6042,-1.6068,-1.6092,-1.6102,-1.6093,-1.6093,-1.6101,-1.6101,-1.6098,-1.6099,-1.6007,-1.6091,-1.609,-1.609,-1.609,-1.6089,-1.5877,-1.59,-1.5916,-1.5942,-1.5956,-1.5972,-1.5994,-1.6001,-1.6025,-1.6052,-1.605,-1.6081,-1.6097,-1.6129,-1.614,-1.6164,-1.6153,-1.6164,-1.6167,-1.617,-1.6172,-1.6095,-1.6168,-1.6168,-1.6168,-1.6168,-1.6168,0,-1.595,-1.596,-1.5984,-1.6009,-1.603,-1.602,-1.6039,-1.6056,-1.6083,-1.6099,-1.612,-1.6152,-1.6178,-1.6187,-1.6212,-1.6229,-1.6226,-1.6235,-1.6234,-1.6236,-1.618,-1.6171,-1.6238,-1.6238,-1.6238,-1.6238,-1.6238,-1.6238,-1.5991,-1.6029,-1.6031,-1.6075,-1.6084,-1.6114,-1.6125,-1.614,-1.6153,-1.6189,-1.6209,-1.6215,-1.6228,-1.6254,-1.6276,-1.6278,-1.6287,-1.6298,-1.6299,-1.6247,-1.624,-1.6233,-1.6224,-1.6301,-1.6301,-1.6352,-1.6352,-1.6353]},{"header":{"parameterUnit":"m.s-1","parameterCategory":1,"la1":30.2991,"la2":30.254,"lo1":-89.0895,"lo2":-89.0444,"dy":0.0017,"dx":0.0017,"nx":28,"ny":28,"refTime":"2025-08-25T09:00:00:Z","depth":0,"parameterNumber":3,"parameterNumberName":"V-component_of_WINDS"},"data":[0,0,0,0,0,0,0,0,0,0,0,0,0,0,0,0,0,0,0,0,0,0,0,0,0,0,0,0,0,0,0,0,0,0,0,0,0,0,0,0,0,0,0,0,0,0,0,0,0,0,0,0,0,0,0,0,0,0,-2.1356,-2.1357,0,-2.146,-2.1462,-2.1463,-2.1503,-2.1503,-2.1503,-2.1502,-2.1607,-2.161,-2.1613,0,0,0,0,0,0,0,0,0,0,0,0,0,-2.1189,-2.1192,-2.1356,-2.1357,-2.1359,-2.146,-2.1462,-2.1463,-2.1503,-2.1503,-2.1503,-2.1502,-2.1606,-2.1609,-2.1613,0,0,0,0,0,0,0,0,0,0,0,0,0,-2.1274,-2.1193,-2.1356,-2.1391,-2.1395,-2.146,-2.1462,-2.1464,-2.1503,-2.1503,-2.1503,-2.1502,-2.1604,-2.1609,-2.1613,-2.165,0,0,-2.1627,-2.1629,0,0,0,0,0,0,0,0,-2.1269,-2.128,-2.1385,-2.1389,-2.1394,-2.1469,-2.1441,-2.1526,-2.1504,-2.1462,-2.1502,-2.1502,-2.1561,-2.1569,-2.1589,-2.1655,-2.1659,-2.1628,-2.163,-2.1632,-2.1634,0,0,0,0,0,0,0,-2.1264,-2.1276,-2.1397,-2.1386,-2.1392,-2.1401,-2.1412,-2.1457,-2.1513,-2.1466,-2.1469,-2.1481,-2.1563,-2.1585,-2.1592,-2.1661,-2.1628,-2.1632,-2.1634,-2.1636,-2.1761,-2.1762,0,0,0,0,0,0,-2.1252,-2.1271,-2.1394,-2.14,-2.1329,-2.1404,-2.1417,-2.1445,-2.1512,-2.1522,-2.1481,-2.1482,-2.1577,-2.1587,-2.1596,-2.1643,-2.1632,-2.1637,-2.1639,-2.176,-2.1761,-2.1762,0,0,0,0,0,0,-2.1248,-2.1263,-2.139,-2.1337,-2.1354,-2.1408,-2.1438,-2.1447,-2.1469,-2.1524,-2.1534,-2.1493,-2.1577,-2.159,-2.1636,-2.1647,-2.1639,-2.1643,-2.176,-2.1761,-2.1761,-2.1737,0,0,0,0,0,0,-2.1243,-2.1261,-2.1276,-2.1337,-2.1356,-2.1429,-2.1439,-2.1449,-2.1477,-2.148,-2.1538,-2.1547,-2.1578,-2.1629,-2.1641,-2.1653,-2.1646,-2.1759,-2.176,-2.1761,-2.1737,-2.1737,-2.1737,0,0,0,0,0,-2.1237,-2.1265,-2.1277,-2.1291,-2.1376,-2.143,-2.1441,-2.1476,-2.1478,-2.1493,-2.1528,-2.1545,-2.1644,-2.1634,-2.1647,-2.1661,-2.1758,-2.176,-2.1761,-2.1737,-2.1737,-2.1737,0,0,0,0,0,0,-2.1203,-2.1273,-2.1287,-2.1335,-2.1376,-2.1436,-2.1457,-2.1475,-2.1516,-2.1517,-2.1558,-2.1571,-2.1614,-2.1642,-2.163,-2.17,-2.1702,-2.1706,-2.168,-2.168,-2.168,-2.1672,-2.165,0,0,0,0,0,-2.1201,-2.124,-2.1299,-2.1335,-2.1355,-2.1402,-2.1427,-2.1451,-2.1495,-2.1512,-2.1551,-2.1592,-2.1632,-2.1658,-2.1698,-2.1742,-2.1755,-2.1758,-2.1757,-2.1757,-2.176,-2.1785,-2.1787,-2.1766,-2.1766,-2.1766,0,0,-2.1198,-2.1241,-2.1262,-2.1329,-2.1364,-2.1402,-2.1417,-2.1456,-2.1484,-2.1518,-2.1564,-2.1594,-2.1643,-2.1688,-2.171,-2.1713,-2.1769,-2.1759,-2.1758,-2.1761,-2.1786,-2.1788,-2.179,-2.1767,-2.1767,-2.1767,0,0,-2.1211,-2.1247,-2.1282,-2.1316,-2.1369,-2.14,-2.1408,-2.1466,-2.1487,-2.1535,-2.156,-2.1594,-2.1663,-2.1696,-2.1722,-2.1747,-2.1764,-2.1759,-2.1758,-2.1782,-2.1784,-2.1785,-2.1794,-2.1797,-2.1762,-2.1762,-2.1762,0,-2.1199,-2.1258,-2.1297,-2.1335,-2.1364,-2.1396,-2.1431,-2.1462,-2.1525,-2.1543,-2.1546,-2.1633,-2.1667,-2.1721,-2.1727,-2.1747,-2.1757,-2.1753,-2.1781,-2.1783,-2.1785,-2.1793,-2.1796,-2.1761,-2.1761,-2.1761,-2.1761,0,-2.1242,-2.1282,-2.1303,-2.1364,-2.1395,-2.1431,-2.1474,-2.15,-2.1521,-2.1552,-2.16,-2.1643,-2.1692,-2.1707,-2.1728,-2.1763,-2.1763,-2.1773,-2.1776,-2.1785,-2.1794,-2.1797,-2.1759,-2.176,-2.176,-2.176,0,0,-2.1236,-2.1317,-2.1324,-2.1352,-2.1412,-2.1444,-2.1481,-2.153,-2.1552,-2.1593,-2.1625,-2.1683,-2.1692,-2.1721,-2.1746,-2.1767,-2.1783,-2.1774,-2.1775,-2.1774,-2.1825,-2.1817,-2.182,-2.1795,-2.1796,-2.1797,-2.182,0,-2.1256,-2.1325,-2.1361,-2.1415,-2.1452,-2.1483,-2.1516,-2.1556,-2.1585,-2.1621,-2.1653,-2.1693,-2.1702,-2.172,-2.1742,-2.1777,-2.1794,-2.1776,-2.1825,-2.1826,-2.1811,-2.1825,-2.1817,-2.1837,-2.1824,-2.1825,-2.1825,0,-2.1289,-2.1332,-2.1389,-2.1445,-2.1462,-2.149,-2.1538,-2.1572,-2.1617,-2.1637,-2.167,-2.1695,-2.1734,-2.1735,-2.179,-2.1777,-2.1799,-2.1819,-2.182,-2.1826,-2.1826,-2.1831,-2.1845,-2.1848,-2.1831,-2.1831,-2.183,0,-2.1279,-2.135,-2.1394,-2.1416,-2.1482,-2.1502,-2.153,-2.1575,-2.1602,-2.1644,-2.1662,-2.1707,-2.1731,-2.1765,-2.1801,-2.1798,-2.1852,-2.1856,-2.1869,-2.1868,-2.1879,-2.1878,-2.1896,-2.1893,-2.1893,-2.1893,-2.1893,0,-2.1298,-2.1332,-2.139,-2.1416,-2.1455,-2.1495,-2.1532,-2.1562,-2.1602,-2.1635,-2.1665,-2.1695,-2.174,-2.1775,-2.1803,-2.1844,-2.1855,-2.1872,-2.1879,-2.1869,-2.1867,-2.1884,-2.1883,-2.1894,-2.1894,-2.1894,-2.1894,0,-2.1292,-2.1333,-2.1382,-2.1441,-2.1457,-2.1482,-2.1532,-2.1559,-2.159,-2.1631,-2.1642,-2.1691,-2.1734,-2.1773,-2.183,-2.1849,-2.189,-2.1899,-2.1875,-2.1879,-2.189,-2.1888,-2.192,-2.1926,-2.1919,-2.1919,-2.1919,0,-2.1302,-2.1329,-2.139,-2.1415,-2.1443,-2.1481,-2.1509,-2.155,-2.1577,-2.1631,-2.1651,-2.1697,-2.1735,-2.1802,-2.1842,-2.1886,-2.1896,-2.1904,-2.1902,-2.1892,-2.1895,-2.1893,-2.1896,-2.1903,-2.1903,-2.1903,-2.1903,0,-2.1314,-2.1332,-2.1372,-2.1419,-2.1452,-2.149,-2.1529,-2.1547,-2.1595,-2.1624,-2.1669,-2.1699,-2.1757,-2.1802,-2.185,-2.1878,-2.1898,-2.1903,-2.1908,-2.1899,-2.1883,-2.1891,-2.1873,-2.1902,-2.1902,-2.1902,-2.1902,-2.1902,-2.1316,-2.1341,-2.1388,-2.1432,-2.1465,-2.1501,-2.1529,-2.1564,-2.1602,-2.1654,-2.1675,-2.172,-2.1765,-2.1832,-2.186,-2.1895,-2.1899,-2.1907,-2.1909,-2.191,-2.1908,-2.1878,-2.1904,-2.1904,-2.1904,-2.1904,-2.1904,0,-2.1329,-2.1361,-2.1401,-2.1455,-2.1489,-2.1505,-2.155,-2.1576,-2.1616,-2.1656,-2.1694,-2.1745,-2.1788,-2.1831,-2.1877,-2.1897,-2.1907,-2.1907,-2.1906,-2.1912,-2.1902,-2.1893,-2.1898,-2.1898,-2.1898,-2.1898,-2.1898,-2.1898,-2.134,-2.1384,-2.1408,-2.1468,-2.15,-2.1545,-2.1569,-2.1602,-2.1634,-2.169,-2.1727,-2.1755,-2.1796,-2.1845,-2.1885,-2.1896,-2.1911,-2.1909,-2.1923,-2.1913,-2.1913,-2.1913,-2.1904,-2.1912,-2.1912,-2.193,-2.193,-2.193]}]]